Miscellaneous Local Product
Issued by NWS Hastings, NE

Home | Current Version | Previous Version | Text Only | Print | Product List | Glossary On
Versions: 1 2 3 4 5 6 7 8 9 10 11 12 13 14 15 16 17 18 19 20 21 22 23 24 25 26 27 28 29 30 31 32 33 34 35 36 37 38 39 40 41 42 43 44 45 46 47 48 49 50
708
AXUS43 KGID 250402
MISGRI

GID CWA HOURLY WEATHER ROUNDUP
NATIONAL WEATHER SERVICE HASTINGS NE
1100 PM CDT FRI MAR 24 2017

NOTE: "FAIR" INDICATES FEW OR NO CLOUDS BELOW 12,000 FEET WITH NO
SIGNIFICANT WEATHER AND/OR OBSTRUCTIONS TO VISIBILITY.

...SOUTH CENTRAL NEBRASKA...

CITY           SKY/WX    TMP DP  RH WIND       PRES   REMARKS
GRAND ISLAND   CLOUDY    40  40 100 N18       30.05S WCI  31
HASTINGS       CLOUDY    40  37  89 NE18      30.03F WCI  31
KEARNEY        CLOUDY    41  37  87 N15       30.06S
ORD            CLOUDY    42  38  85 N9        30.06F
YORK           CLOUDY    39  39 100 N21       30.03F WCI  29
AURORA         CLOUDY    40  38  95 N20       30.03F FOG     WCI  30
LEXINGTON      CLOUDY    42  38  86 N13G21    30.05S
HOLDREGE       CLOUDY    41  39  91 N16       30.05S
HEBRON         CLOUDY    41  39  91 N13G21    30.00R

...NEBRASKA PANHANDLE...

CITY           SKY/WX    TMP DP  RH WIND       PRES   REMARKS
CHADRON        CLEAR     43  30  60 S12       30.09S
ALLIANCE       CLEAR     35  27  72 SE6       30.11S WCI  30
SCOTTSBLUFF    CLEAR     36  28  73 E8        30.11S WCI  30
SIDNEY         CLEAR     33  25  72 SE5       30.13S WCI  29

...WESTERN AND NORTH CENTRAL NEBRASKA...

CITY           SKY/WX    TMP DP  RH WIND       PRES   REMARKS
VALENTINE      CLEAR     35  27  72 E6        30.13R WCI  30
AINSWORTH      CLEAR     35  31  85 NE5       30.12S WCI  31
ONEILL         CLOUDY    39  37  93 N9        30.10F WCI  33
BROKEN BOW     CLOUDY    43  38  82 N16       30.06F
IMPERIAL       MOCLDY    41  36  82 N7        30.10S
NORTH PLATTE   CLOUDY    43  36  76 N8        30.08F
MCCOOK         CLOUDY    42  41  96 N7        30.07S

...EASTERN NEBRASKA...

CITY           SKY/WX    TMP DP  RH WIND       PRES   REMARKS
NORFOLK        CLOUDY    39  37  92 N14       30.07R WCI  31
SO SIOUX CITY  LGT RAIN  41  39  93 NE12      30.08R FOG
TEKAMAH        LGT RAIN  42  39  89 N16       30.04S
COLUMBUS       CLOUDY    41  37  87 N10       30.06R
ALBION         CLOUDY    41  37  87 N9        30.08R
OMAHA EPPLEY   LGT RAIN  42  38  85 N18       30.00S
OFFUTT AFB     LGT RAIN  42  39  90 N16G22    29.98F
MILLARD        LGT RAIN  43  42  95 N5        29.99F
LINCOLN        LGT RAIN  42  40  92 N15       30.01F
NEBRASKA CITY  RAIN      42  42 100 N18G28    29.95S
BEATRICE       CLOUDY    43  40  89 N12G22    29.97F
FALLS CITY     LGT RAIN  46  32  58 N10       29.90R

...NORTHERN KANSAS...

CITY           SKY/WX    TMP DP  RH WIND       PRES   REMARKS
GOODLAND       CLOUDY    39  37  92 N14       30.07S WCI  31
HILL CITY      CLOUDY    42  40  92 N17G24    30.04S
NORTON         CLOUDY    39  36  87 N14       30.03  WCI  31
PHILLIPSBURG   CLOUDY    43  39  87 N16       30.03F
HAYS             N/A     42  38  85 N18       29.99S
RUSSELL        CLOUDY    41  39  93 N17       29.96F
CONCORDIA      CLOUDY    42  39  89 N15G28    29.95S
SALINA         CLOUDY    46  43  89 N21       29.92S
TOPEKA         LGT RAIN  54  54 100 N20G30    29.80F



USA.gov is the U.S. government's official web portal to all federal, state and local government web resources and services.